[[{"header":{"parameterUnit":"m.s-1","parameterCategory":1,"la1":30.2991,"la2":30.254,"lo1":-89.0895,"lo2":-89.0444,"dy":0.0017,"dx":0.0017,"nx":28,"ny":28,"refTime":"2025-08-13T09:00:00:Z","depth":0,"parameterNumber":2,"parameterNumberName":"U-component_of_WINDS"},"data":[0,0,0,0,0,0,0,0,0,0,0,0,0,0,0,0,0,0,0,0,0,0,0,0,0,0,0,0,0,0,0,0,0,0,0,0,0,0,0,0,0,0,0,0,0,0,0,0,0,0,0,0,0,0,0,0,0,0,1.2615,1.2617,0,1.2735,1.2737,1.2738,1.2786,1.2785,1.2785,1.2785,1.2908,1.2911,1.2915,0,0,0,0,0,0,0,0,0,0,0,0,0,1.2427,1.2431,1.2615,1.2617,1.2618,1.2735,1.2737,1.2738,1.2786,1.2785,1.2785,1.2785,1.2907,1.2911,1.2915,0,0,0,0,0,0,0,0,0,0,0,0,0,1.2524,1.2432,1.2615,1.2656,1.2661,1.2735,1.2737,1.2739,1.2786,1.2785,1.2785,1.2784,1.2905,1.291,1.2916,1.2958,0,0,1.2932,1.2934,0,0,0,0,0,0,0,0,1.2519,1.2531,1.2648,1.2653,1.2659,1.2745,1.2716,1.2812,1.2786,1.2738,1.2785,1.2784,1.2854,1.2863,1.2887,1.2963,1.2969,1.2932,1.2936,1.2938,1.2939,0,0,0,0,0,0,0,1.2512,1.2526,1.2663,1.265,1.2656,1.2668,1.2682,1.2734,1.2797,1.2742,1.2746,1.276,1.2857,1.2882,1.289,1.297,1.2932,1.2937,1.294,1.2942,1.3087,1.3088,0,0,0,0,0,0,1.2498,1.252,1.2659,1.2666,1.2586,1.2672,1.2687,1.2718,1.2797,1.2808,1.276,1.2761,1.2873,1.2884,1.2895,1.2949,1.2938,1.2943,1.2946,1.3087,1.3087,1.3088,0,0,0,0,0,0,1.2494,1.251,1.2654,1.2594,1.2614,1.2676,1.271,1.272,1.2745,1.281,1.2822,1.2774,1.2873,1.2887,1.2942,1.2954,1.2945,1.295,1.3086,1.3087,1.3088,1.3058,0,0,0,0,0,0,1.2489,1.2509,1.2525,1.2594,1.2617,1.2699,1.2711,1.2723,1.2755,1.2758,1.2826,1.2837,1.2874,1.2933,1.2947,1.2961,1.2954,1.3085,1.3086,1.3087,1.3058,1.3057,1.3057,0,0,0,0,0,1.2482,1.2512,1.2526,1.2542,1.2639,1.2699,1.2712,1.2754,1.2755,1.2772,1.2814,1.2835,1.295,1.2938,1.2954,1.297,1.3084,1.3086,1.3087,1.3058,1.3058,1.3057,0,0,0,0,0,0,1.2442,1.2522,1.2538,1.2591,1.2638,1.2707,1.273,1.2752,1.2799,1.28,1.285,1.2865,1.2915,1.2948,1.2933,1.3015,1.3019,1.3024,1.2991,1.2991,1.2991,1.2982,1.2959,0,0,0,0,0,1.244,1.2483,1.255,1.2591,1.2613,1.2667,1.2696,1.2723,1.2774,1.2794,1.284,1.2888,1.2935,1.2965,1.3012,1.3063,1.3078,1.3082,1.3081,1.3081,1.3084,1.3113,1.3115,1.3093,1.3093,1.3093,0,0,1.2435,1.2484,1.2508,1.2584,1.2624,1.2667,1.2684,1.2729,1.2761,1.2801,1.2855,1.289,1.2947,1.3,1.3025,1.3029,1.3094,1.3082,1.3081,1.3085,1.3115,1.3117,1.3119,1.3094,1.3094,1.3093,0,0,1.2449,1.249,1.2529,1.2568,1.2628,1.2664,1.2673,1.2739,1.2763,1.2818,1.2849,1.2888,1.2969,1.3008,1.3038,1.3067,1.3088,1.3081,1.3079,1.3107,1.3109,1.311,1.312,1.3123,1.3084,1.3084,1.3084,0,1.2436,1.2502,1.2546,1.2589,1.2621,1.2659,1.2698,1.2734,1.2806,1.2828,1.2831,1.2932,1.2974,1.3036,1.3043,1.3066,1.3078,1.3073,1.3105,1.3107,1.3109,1.3119,1.3123,1.3083,1.3083,1.3083,1.3083,0,1.2483,1.2528,1.2552,1.2621,1.2656,1.2697,1.2746,1.2777,1.2801,1.2837,1.2892,1.2943,1.3001,1.3018,1.3042,1.3083,1.3084,1.3095,1.31,1.3109,1.312,1.3124,1.3081,1.3081,1.3082,1.3082,0,0,1.2475,1.2567,1.2575,1.2607,1.2675,1.2711,1.2754,1.281,1.2835,1.2883,1.292,1.2987,1.2998,1.3033,1.3062,1.3086,1.3105,1.3095,1.3097,1.3095,1.3154,1.3144,1.3148,1.312,1.3121,1.3121,1.3149,0,1.2498,1.2576,1.2616,1.2677,1.272,1.2756,1.2793,1.2839,1.2873,1.2914,1.2952,1.2999,1.301,1.3031,1.3056,1.3098,1.3118,1.3096,1.3154,1.3156,1.3139,1.3154,1.3144,1.3168,1.3153,1.3154,1.3154,0,1.2535,1.2583,1.2647,1.2711,1.2731,1.2763,1.2818,1.2857,1.291,1.2933,1.2971,1.3,1.3046,1.3048,1.3112,1.3096,1.3122,1.3146,1.3148,1.3155,1.3156,1.3161,1.3176,1.3179,1.3161,1.316,1.316,0,1.2522,1.2603,1.2652,1.2678,1.2754,1.2776,1.2808,1.2861,1.2892,1.294,1.2961,1.3013,1.3042,1.3082,1.3124,1.3121,1.3184,1.3189,1.3205,1.3204,1.3216,1.3215,1.3236,1.3233,1.3233,1.3233,1.3233,0,1.2543,1.2582,1.2648,1.2678,1.2722,1.2768,1.281,1.2845,1.2892,1.2929,1.2964,1.2999,1.3052,1.3093,1.3127,1.3175,1.3187,1.3207,1.3216,1.3204,1.3202,1.3222,1.3222,1.3234,1.3234,1.3234,1.3233,0,1.2537,1.2583,1.2639,1.2706,1.2724,1.2753,1.281,1.2841,1.2877,1.2924,1.2938,1.2994,1.3044,1.309,1.3157,1.318,1.3228,1.3239,1.321,1.3215,1.3227,1.3226,1.3262,1.3269,1.3261,1.3261,1.3261,0,1.2547,1.2578,1.2648,1.2676,1.2707,1.2752,1.2784,1.283,1.2862,1.2925,1.2948,1.3001,1.3045,1.3124,1.3171,1.3222,1.3234,1.3243,1.3242,1.3229,1.3234,1.3232,1.3235,1.3243,1.3243,1.3242,1.3242,0,1.2561,1.2582,1.2627,1.268,1.2718,1.2762,1.2807,1.2827,1.2882,1.2916,1.2968,1.3003,1.3071,1.3123,1.3179,1.3213,1.3237,1.3242,1.3249,1.3237,1.3219,1.3229,1.3209,1.3241,1.3242,1.3242,1.3242,1.3242,1.2563,1.2592,1.2646,1.2695,1.2734,1.2775,1.2807,1.2847,1.2891,1.295,1.2975,1.3027,1.3079,1.3158,1.3191,1.3232,1.3237,1.3246,1.3249,1.325,1.3248,1.3213,1.3243,1.3243,1.3243,1.3243,1.3243,0,1.2578,1.2615,1.266,1.2722,1.276,1.278,1.283,1.2861,1.2907,1.2954,1.2997,1.3056,1.3107,1.3157,1.321,1.3234,1.3246,1.3246,1.3245,1.3252,1.3241,1.323,1.3235,1.3235,1.3235,1.3235,1.3235,1.3235,1.2591,1.264,1.2668,1.2737,1.2773,1.2825,1.2853,1.2891,1.2928,1.2993,1.3035,1.3068,1.3116,1.3173,1.322,1.3233,1.3251,1.3248,1.3265,1.3253,1.3253,1.3253,1.3243,1.3252,1.3252,1.3273,1.3273,1.3273]},{"header":{"parameterUnit":"m.s-1","parameterCategory":1,"la1":30.2991,"la2":30.254,"lo1":-89.0895,"lo2":-89.0444,"dy":0.0017,"dx":0.0017,"nx":28,"ny":28,"refTime":"2025-08-13T09:00:00:Z","depth":0,"parameterNumber":3,"parameterNumberName":"V-component_of_WINDS"},"data":[0,0,0,0,0,0,0,0,0,0,0,0,0,0,0,0,0,0,0,0,0,0,0,0,0,0,0,0,0,0,0,0,0,0,0,0,0,0,0,0,0,0,0,0,0,0,0,0,0,0,0,0,0,0,0,0,0,0,5.5116,5.5116,0,5.5136,5.5136,5.5136,5.5125,5.5125,5.5124,5.5124,5.5141,5.5142,5.5143,0,0,0,0,0,0,0,0,0,0,0,0,0,5.5065,5.5066,5.5116,5.5116,5.5116,5.5136,5.5136,5.5136,5.5125,5.5125,5.5124,5.5123,5.5141,5.5142,5.5143,0,0,0,0,0,0,0,0,0,0,0,0,0,5.5086,5.5066,5.5116,5.5113,5.5113,5.5136,5.5136,5.5137,5.5125,5.5125,5.5124,5.5123,5.514,5.5142,5.5143,5.5169,0,0,5.5148,5.5148,0,0,0,0,0,0,0,0,5.5085,5.5088,5.5113,5.5113,5.5113,5.5127,5.5125,5.5147,5.5126,5.5121,5.5124,5.5123,5.5137,5.5139,5.5144,5.5169,5.517,5.5148,5.5149,5.5149,5.515,0,0,0,0,0,0,0,5.5084,5.5087,5.5124,5.5114,5.5114,5.511,5.5112,5.5129,5.5133,5.5121,5.512,5.5123,5.5137,5.5143,5.5144,5.517,5.5148,5.5149,5.515,5.515,5.5217,5.5218,0,0,0,0,0,0,5.5083,5.5086,5.5123,5.5124,5.5097,5.5112,5.5114,5.5124,5.5133,5.5134,5.5124,5.5122,5.5141,5.5143,5.5145,5.5175,5.5149,5.5151,5.5151,5.5216,5.5217,5.5218,0,0,0,0,0,0,5.5082,5.5086,5.5122,5.5105,5.5109,5.5114,5.5124,5.5124,5.513,5.5135,5.5135,5.5129,5.514,5.5143,5.5163,5.5175,5.5151,5.5153,5.5215,5.5217,5.5218,5.5235,0,0,0,0,0,0,5.508,5.5086,5.5096,5.5105,5.511,5.5141,5.5125,5.5125,5.5133,5.5132,5.514,5.5141,5.514,5.5161,5.5164,5.5177,5.5154,5.5214,5.5216,5.5217,5.5233,5.5237,5.5239,0,0,0,0,0,5.5079,5.5099,5.5097,5.5101,5.5123,5.5141,5.5144,5.5143,5.5134,5.5144,5.5147,5.514,5.5174,5.5163,5.5167,5.518,5.5213,5.5215,5.5217,5.5232,5.5236,5.5239,0,0,0,0,0,0,5.509,5.5101,5.5098,5.5122,5.5131,5.514,5.5152,5.5148,5.5159,5.5157,5.5154,5.5156,5.5177,5.5181,5.5169,5.5205,5.5192,5.5195,5.5201,5.5205,5.5209,5.5207,5.5155,0,0,0,0,0,5.5096,5.5111,5.5119,5.514,5.5144,5.5148,5.5155,5.5154,5.5163,5.5166,5.5171,5.5178,5.5191,5.5198,5.521,5.5234,5.5235,5.5245,5.5248,5.5251,5.5253,5.5265,5.5269,5.5225,5.5225,5.5225,0,0,5.5107,5.5115,5.5124,5.5142,5.5149,5.5163,5.5151,5.5166,5.5177,5.5168,5.5187,5.5191,5.52,5.5222,5.5232,5.5225,5.5266,5.5253,5.5255,5.5256,5.5268,5.5272,5.5276,5.5226,5.5226,5.5226,0,0,5.5135,5.5143,5.5161,5.5168,5.5179,5.5181,5.5186,5.5195,5.5197,5.5217,5.5211,5.5223,5.5244,5.525,5.5256,5.5288,5.5281,5.5291,5.5307,5.5319,5.5323,5.5326,5.5336,5.534,5.5294,5.5294,5.5294,0,5.5147,5.5169,5.517,5.5187,5.5194,5.5189,5.5207,5.5214,5.5227,5.5233,5.5226,5.5252,5.5258,5.5281,5.5289,5.5294,5.5298,5.529,5.5323,5.5326,5.5328,5.5338,5.5342,5.5295,5.5295,5.5295,5.5295,0,5.5183,5.5199,5.5212,5.5227,5.5236,5.5253,5.5256,5.5265,5.5264,5.5266,5.5286,5.5293,5.5306,5.5311,5.5309,5.5334,5.533,5.5323,5.531,5.5334,5.5343,5.5346,5.5296,5.5296,5.5296,5.5295,0,0,5.5217,5.5233,5.5238,5.5244,5.5256,5.5268,5.5285,5.5298,5.5306,5.5316,5.5329,5.5348,5.5342,5.5348,5.5347,5.5358,5.5381,5.535,5.535,5.5354,5.5408,5.5412,5.5417,5.5378,5.5379,5.538,5.5407,0,5.5244,5.5274,5.5276,5.5303,5.5317,5.5313,5.5327,5.5336,5.5339,5.5351,5.5354,5.5367,5.5359,5.5363,5.5373,5.5376,5.5392,5.5375,5.5389,5.539,5.5386,5.5421,5.5426,5.5451,5.5411,5.5411,5.5412,0,5.528,5.5292,5.5321,5.5331,5.5337,5.535,5.5363,5.5375,5.5384,5.5386,5.5394,5.5392,5.5408,5.5396,5.5417,5.5406,5.5412,5.5414,5.5415,5.5415,5.5401,5.5421,5.546,5.5463,5.5417,5.5417,5.5417,0,5.53,5.5324,5.5344,5.535,5.5363,5.5372,5.5378,5.5387,5.5395,5.5406,5.5411,5.5423,5.543,5.5439,5.544,5.5431,5.5461,5.5449,5.5462,5.5462,5.5467,5.5466,5.5506,5.5474,5.5473,5.5473,5.5473,0,5.5329,5.5347,5.5353,5.5365,5.5385,5.5387,5.5405,5.541,5.5419,5.5431,5.5428,5.544,5.5441,5.5452,5.5453,5.547,5.5474,5.5474,5.5474,5.5474,5.5474,5.5477,5.5474,5.5474,5.5474,5.5474,5.5474,0,5.5354,5.536,5.5381,5.5393,5.5396,5.541,5.5419,5.543,5.5434,5.5449,5.5453,5.5458,5.5472,5.5474,5.549,5.549,5.5511,5.5509,5.5508,5.5507,5.5519,5.5518,5.5561,5.5566,5.5532,5.5532,5.5532,0,5.5372,5.5386,5.5399,5.5408,5.5414,5.5429,5.5437,5.544,5.5449,5.5461,5.5471,5.5485,5.5495,5.5517,5.5522,5.5534,5.5531,5.5546,5.5533,5.5532,5.553,5.5529,5.553,5.5548,5.5548,5.5548,5.5549,0,5.5403,5.5405,5.5418,5.5433,5.5444,5.5455,5.5465,5.5472,5.5476,5.5486,5.5501,5.551,5.5527,5.554,5.5552,5.5556,5.5553,5.5553,5.5556,5.5555,5.5554,5.5554,5.5513,5.5551,5.5551,5.5551,5.5551,5.5551,5.5424,5.5436,5.5447,5.5462,5.5471,5.5481,5.5492,5.5498,5.5511,5.5525,5.5526,5.5541,5.5551,5.5567,5.5573,5.5584,5.5579,5.5585,5.5586,5.5586,5.5587,5.5553,5.5586,5.5586,5.5586,5.5586,5.5586,0,5.5453,5.5461,5.5475,5.5491,5.5502,5.55,5.5512,5.5521,5.5535,5.5545,5.5556,5.5573,5.5586,5.5592,5.5605,5.5613,5.5611,5.5616,5.5615,5.5616,5.5591,5.5587,5.5617,5.5617,5.5617,5.5617,5.5617,5.5617,5.547,5.549,5.5494,5.5517,5.5525,5.5541,5.5548,5.5557,5.5565,5.5584,5.5595,5.56,5.5608,5.5621,5.5633,5.5634,5.5638,5.5643,5.5644,5.562,5.5617,5.5614,5.561,5.5644,5.5644,5.5667,5.5667,5.5667]}]]